Stevens Point, WI

4:33 PM CDT on October 23, 2017 (GMT -0500)
Stevens Point Municipal

Weather History for KSTE - July, 2013

Change the Weather History Date:

Friday, July 26, 2013

  Actual Average Record
Temperature  
Mean Temperature 62 °F -  
Max Temperature 72 °F 81 °F 99 °F (1955)
Min Temperature 52 °F 59 °F 46 °F (1962)
Degree Days  
Heating Degree Days 3    
Growing Degree Days 12 (Base 50)    
Moisture  
Dew Point 56 °F    
Average Humidity 79    
Maximum Humidity 96    
Minimum Humidity 48    
Precipitation  
Precipitation 0.12 in - - ()
Sea Level Pressure  
Sea Level Pressure 29.91 in    
Wind  
Wind Speed 7 mph (West)    
Max Wind Speed 22 mph    
Max Gust Speed 30 mph    
Visibility 10 miles    
Events Rain , Thunderstorm    
Averages and records for this station are not official NWS values.
T = Trace of Precipitation, MM = Missing Value Source: NWS Daily Summary

Daily Weather History Graph

Daily Weather History Graph

Search for Another Location

Airport or City:

Trip Planner

Search our weather history database for the weather conditions in past years. The results will help you decide how hot, cold, wet, or windy it might be!

Date:

Astronomy

Jul. 26, 2013 Rise Set
Actual Time 5:38 AM CDT 8:30 PM CDT
Civil Twilight 5:04 AM CDT 9:04 PM CDT
Nautical Twilight 4:21 AM CDT 9:47 PM CDT
Astronomical Twilight 3:30 AM CDT 10:37 PM CDT
Moon 10:29 PM CDT (7/26) 10:28 AM CDT (7/26)
Length of Visible Light 15h 59m
Length of Day
14h 51m
Waning Gibbous, 80% of the Moon is Illuminated
Jul 26
Waning Gibbous
Jul 29
Last Quarter
Aug 6
New
Aug 14
First Quarter
Aug 20
Full

Hourly Weather History & Observations

Time (CDT) Temp. Dew Point Humidity Pressure Visibility Wind Dir Wind Speed Gust Speed Precip Events Conditions
12:15 AM 61.7 °F 59.2 °F 91% 29.97 in 10.0 mi SW 6.9 mph - N/A   Mostly Cloudy
12:35 AM 61.7 °F 59.2 °F 91% 29.97 in 10.0 mi SW 5.8 mph - N/A   Scattered Clouds
12:55 AM 61.3 °F 59.0 °F 92% 29.97 in 10.0 mi WSW 4.6 mph - N/A   Scattered Clouds
1:15 AM 61.7 °F 59.0 °F 91% 29.96 in 10.0 mi Calm Calm - N/A   Scattered Clouds
1:35 AM 61.3 °F 58.8 °F 91% 29.96 in 10.0 mi WSW 3.5 mph - N/A   Clear
1:55 AM 61.0 °F 58.5 °F 91% 29.96 in 10.0 mi WSW 4.6 mph - N/A   Clear
2:15 AM 60.3 °F 58.5 °F 94% 29.96 in 10.0 mi Calm Calm - N/A   Clear
2:35 AM 60.4 °F 58.5 °F 93% 29.95 in 10.0 mi Calm Calm - N/A   Clear
2:55 AM 60.8 °F 58.8 °F 93% 29.94 in 10.0 mi Calm Calm - N/A   Mostly Cloudy
3:15 AM 60.1 °F 58.6 °F 95% 29.93 in 10.0 mi Calm Calm - N/A   Overcast
3:35 AM 61.0 °F 59.4 °F 94% 29.93 in 10.0 mi SW 3.5 mph - N/A   Overcast
3:55 AM 61.3 °F 59.4 °F 93% 29.93 in 10.0 mi SW 5.8 mph - N/A   Overcast
4:15 AM 61.9 °F 59.2 °F 91% 29.93 in 10.0 mi WSW 5.8 mph - N/A   Overcast
4:35 AM 61.9 °F 59.2 °F 91% 29.93 in 10.0 mi SW 4.6 mph - N/A   Overcast
4:55 AM 61.9 °F 59.4 °F 91% 29.91 in 10.0 mi SW 6.9 mph - N/A   Overcast
5:15 AM 61.9 °F 59.5 °F 92% 29.92 in 10.0 mi SW 5.8 mph - N/A   Overcast
5:35 AM 61.5 °F 59.5 °F 93% 29.91 in 10.0 mi SSW 8.1 mph - N/A   Overcast
5:55 AM 60.8 °F 59.5 °F 96% 29.91 in 10.0 mi South 6.9 mph - N/A   Overcast
6:15 AM 61.0 °F 59.5 °F 95% 29.92 in 10.0 mi SSW 6.9 mph - N/A   Overcast
6:35 AM 61.3 °F 59.9 °F 95% 29.92 in 10.0 mi South 10.4 mph - N/A   Overcast
6:55 AM 61.7 °F 59.9 °F 94% 29.92 in 10.0 mi SSW 10.4 mph - N/A   Overcast
7:15 AM 61.9 °F 60.3 °F 94% 29.93 in 10.0 mi SSW 10.4 mph - N/A   Overcast
7:35 AM 62.6 °F 60.8 °F 94% 29.93 in 10.0 mi SW 10.4 mph - N/A   Overcast
7:55 AM 62.8 °F 60.8 °F 93% 29.93 in 10.0 mi SSW 9.2 mph - N/A   Overcast
8:15 AM 63.5 °F 61.2 °F 92% 29.93 in 10.0 mi SW 9.2 mph - N/A   Overcast
8:35 AM 64.0 °F 61.0 °F 90% 29.93 in 10.0 mi SW 8.1 mph - N/A Rain Light Rain
8:55 AM 63.5 °F 61.5 °F 93% 29.93 in 10.0 mi SW 6.9 mph - 0.02 in Rain Light Rain
9:15 AM 63.5 °F 61.7 °F 94% 29.91 in 10.0 mi SSW 8.1 mph - N/A   Overcast
9:35 AM 63.0 °F 61.3 °F 94% 29.91 in 10.0 mi SSW 9.2 mph - N/A   Overcast
9:55 AM 63.5 °F 61.7 °F 94% 29.90 in 10.0 mi SSW 9.2 mph - N/A   Overcast
10:15 AM 65.5 °F 62.2 °F 89% 29.89 in 10.0 mi SW 11.5 mph - N/A   Overcast
10:35 AM 67.8 °F 62.6 °F 83% 29.88 in 10.0 mi SW 11.5 mph - N/A   Overcast
10:55 AM 68.0 °F 61.9 °F 81% 29.87 in 10.0 mi SSW 10.4 mph - N/A   Overcast
11:15 AM 67.5 °F 61.3 °F 81% 29.88 in 10.0 mi WSW 12.7 mph - N/A   Overcast
11:35 AM 66.4 °F 62.1 °F 86% 29.88 in 10.0 mi West 11.5 mph 17.3 mph N/A Rain Rain
11:55 AM 63.9 °F 61.7 °F 93% 29.86 in 7.0 mi West 5.8 mph - 0.05 in Rain Light Rain
12:15 PM 66.2 °F 63.1 °F 90% 29.87 in 10.0 mi WSW 6.9 mph - N/A   Mostly Cloudy
12:35 PM 68.0 °F 62.6 °F 83% 29.86 in 10.0 mi WSW 10.4 mph 16.1 mph N/A Thunderstorm Overcast
12:55 PM 68.9 °F 62.4 °F 80% 29.86 in 10.0 mi WSW 4.6 mph - N/A   Mostly Cloudy
1:15 PM 71.2 °F 62.8 °F 75% 29.85 in 10.0 mi West 5.8 mph - N/A   Overcast
1:35 PM 72.0 °F 58.8 °F 63% 29.84 in 10.0 mi West 21.9 mph 29.9 mph N/A Thunderstorm Mostly Cloudy
1:55 PM 65.5 °F 60.3 °F 83% 29.86 in 10.0 mi WNW 4.6 mph - 0.05 in Thunderstorm Mostly Cloudy
2:15 PM 69.8 °F 61.3 °F 74% 29.85 in 10.0 mi WNW 6.9 mph - N/A   Scattered Clouds
2:35 PM 71.4 °F 55.9 °F 58% 29.85 in 10.0 mi WNW 13.8 mph 24.2 mph N/A   Scattered Clouds
2:55 PM 72.5 °F 54.5 °F 53% 29.85 in 10.0 mi West 13.8 mph 23.0 mph N/A   Scattered Clouds
3:15 PM 71.6 °F 53.4 °F 53% 29.85 in 10.0 mi WNW 11.5 mph 19.6 mph N/A   Scattered Clouds
3:35 PM 70.9 °F 52.2 °F 51% 29.85 in 10.0 mi WNW 12.7 mph 21.9 mph N/A   Scattered Clouds
3:55 PM 70.0 °F 52.2 °F 53% 29.86 in 10.0 mi WNW 9.2 mph 20.7 mph N/A   Scattered Clouds
4:15 PM 71.8 °F 52.0 °F 50% 29.86 in 10.0 mi NW 9.2 mph 19.6 mph N/A   Scattered Clouds
4:35 PM 71.1 °F 50.4 °F 48% 29.86 in 10.0 mi WNW 15.0 mph 20.7 mph N/A   Scattered Clouds
4:55 PM 70.3 °F 50.9 °F 50% 29.86 in 10.0 mi WNW 8.1 mph 21.9 mph N/A   Clear
5:15 PM 70.7 °F 50.0 °F 48% 29.87 in 10.0 mi West 10.4 mph 17.3 mph N/A   Clear
5:35 PM 69.3 °F 52.0 °F 54% 29.88 in 10.0 mi WNW 10.4 mph 19.6 mph N/A   Clear
5:55 PM 68.9 °F 52.2 °F 55% 29.89 in 10.0 mi WNW 13.8 mph 23.0 mph N/A   Scattered Clouds
6:15 PM 67.1 °F 52.9 °F 60% 29.89 in 10.0 mi NW 12.7 mph 19.6 mph N/A   Clear
6:35 PM 65.7 °F 53.2 °F 64% 29.89 in 10.0 mi WNW 5.8 mph - N/A   Scattered Clouds
6:55 PM 67.1 °F 52.9 °F 60% 29.90 in 10.0 mi WNW 6.9 mph - N/A   Mostly Cloudy
7:15 PM 65.8 °F 53.6 °F 65% 29.90 in 10.0 mi NW 9.2 mph - N/A   Mostly Cloudy
7:35 PM 64.4 °F 54.7 °F 71% 29.91 in 10.0 mi WNW 6.9 mph - N/A   Mostly Cloudy
7:55 PM 64.0 °F 53.8 °F 69% 29.91 in 10.0 mi NNW 6.9 mph - N/A   Mostly Cloudy
8:15 PM 63.5 °F 53.2 °F 69% 29.92 in 10.0 mi NNW 8.1 mph - N/A   Overcast
8:35 PM 61.9 °F 52.0 °F 70% 29.94 in 10.0 mi NNW 13.8 mph 20.7 mph N/A   Overcast
8:55 PM 58.3 °F 49.6 °F 73% 29.95 in 10.0 mi NNW 15.0 mph 20.7 mph N/A   Overcast
9:15 PM 56.3 °F 48.6 °F 75% 29.96 in 10.0 mi NNW 12.7 mph 20.7 mph N/A   Overcast
9:35 PM 55.4 °F 47.7 °F 75% 29.97 in 10.0 mi NNW 12.7 mph 18.4 mph N/A   Overcast
9:55 PM 54.9 °F 46.8 °F 74% 29.97 in 10.0 mi NNW 11.5 mph 17.3 mph N/A   Overcast
10:15 PM 54.5 °F 46.6 °F 75% 29.97 in 10.0 mi NNW 11.5 mph - N/A   Overcast
10:35 PM 54.0 °F 46.2 °F 75% 29.96 in 10.0 mi NNW 8.1 mph - N/A   Overcast
10:55 PM 53.4 °F 45.5 °F 75% 29.96 in 10.0 mi North 11.5 mph 20.7 mph N/A   Mostly Cloudy
11:15 PM 53.1 °F 45.3 °F 75% 29.96 in 10.0 mi NW 8.1 mph - N/A   Overcast
11:35 PM 52.7 °F 45.1 °F 75% 29.96 in 10.0 mi NNW 8.1 mph - N/A   Overcast
11:55 PM 52.7 °F 44.8 °F 74% 29.96 in 10.0 mi NW 10.4 mph - N/A   Overcast